Time,TemperatureF,DewpointF,PressureIn,WindDirection,WindDirectionDegrees,WindSpeedMPH,WindSpeedGustMPH,Humidity,HourlyPrecipIn,Conditions,Clouds,dailyrainin,SoftwareType,DateUTC
2013-07-31 00:02:00,56.4,48.9,29.82,SSE,158,0.4,0.8,76,0.00,,,0.00,WUHU216HW,2013-07-31 08:02:00,
2013-07-31 00:07:00,56.4,49.2,29.82,SSE,158,0.0,0.8,77,0.00,,,0.00,WUHU216HW,2013-07-31 08:07:00,
2013-07-31 00:12:00,56.3,48.7,29.82,SSE,158,0.0,0.0,76,0.00,,,0.00,WUHU216HW,2013-07-31 08:12:00,
2013-07-31 00:17:00,56.1,48.5,29.82,SSE,158,0.0,0.0,76,0.00,,,0.00,WUHU216HW,2013-07-31 08:17:00,
2013-07-31 00:22:00,55.9,48.4,29.82,SSE,158,0.0,0.0,76,0.00,,,0.00,WUHU216HW,2013-07-31 08:22:00,
2013-07-31 00:27:00,55.7,48.5,29.82,SSE,158,0.0,0.0,77,0.00,,,0.00,WUHU216HW,2013-07-31 08:27:00,
2013-07-31 00:32:00,55.5,48.4,29.82,SSE,158,0.0,0.0,77,0.00,,,0.00,WUHU216HW,2013-07-31 08:32:00,
2013-07-31 00:37:00,55.2,48.0,29.82,SSE,158,0.0,0.0,77,0.00,,,0.00,WUHU216HW,2013-07-31 08:37:00,
2013-07-31 00:42:00,55.0,47.9,29.82,SSE,158,0.0,0.0,77,0.00,,,0.00,WUHU216HW,2013-07-31 08:42:00,
2013-07-31 00:47:00,55.0,47.9,29.82,SSE,158,0.0,0.0,77,0.00,,,0.00,WUHU216HW,2013-07-31 08:47:00,
2013-07-31 00:52:00,54.6,47.5,29.82,SSE,158,0.0,0.0,77,0.00,,,0.00,WUHU216HW,2013-07-31 08:52:00,
2013-07-31 00:57:00,54.3,47.2,29.82,SSE,158,0.0,0.0,77,0.00,,,0.00,WUHU216HW,2013-07-31 08:57:00,
2013-07-31 01:02:00,54.3,47.2,29.82,SSE,158,0.0,0.0,77,0.00,,,0.00,WUHU216HW,2013-07-31 09:02:00,
2013-07-31 01:07:00,53.9,47.2,29.82,SSE,158,0.0,0.0,78,0.00,,,0.00,WUHU216HW,2013-07-31 09:07:00,
2013-07-31 01:12:00,53.7,47.1,29.82,SSE,158,0.0,0.0,78,0.00,,,0.00,WUHU216HW,2013-07-31 09:12:00,
2013-07-31 01:17:00,53.4,46.7,29.82,SSE,158,0.0,0.0,78,0.00,,,0.00,WUHU216HW,2013-07-31 09:17:00,
2013-07-31 01:22:00,53.4,46.7,29.82,SSE,158,0.0,0.0,78,0.00,,,0.00,WUHU216HW,2013-07-31 09:22:00,
2013-07-31 01:27:00,53.2,46.9,29.82,SSE,158,0.0,0.0,79,0.00,,,0.00,WUHU216HW,2013-07-31 09:27:00,
2013-07-31 01:32:00,53.2,46.9,29.82,SSE,158,0.0,0.0,79,0.00,,,0.00,WUHU216HW,2013-07-31 09:32:00,
2013-07-31 01:37:00,52.8,46.5,29.82,SSE,158,0.0,0.0,79,0.00,,,0.00,WUHU216HW,2013-07-31 09:37:00,
2013-07-31 01:42:00,52.8,46.5,29.82,SSE,158,0.0,0.0,79,0.00,,,0.00,WUHU216HW,2013-07-31 09:42:00,
2013-07-31 01:48:00,52.7,46.4,29.82,SSE,158,0.0,0.0,79,0.00,,,0.00,WUHU216HW,2013-07-31 09:48:00,
2013-07-31 01:53:00,52.3,46.4,29.82,SSE,158,0.0,0.0,80,0.00,,,0.00,WUHU216HW,2013-07-31 09:53:00,
2013-07-31 01:58:00,51.8,45.5,29.82,SSE,158,0.0,0.0,79,0.00,,,0.00,WUHU216HW,2013-07-31 09:58:00,
2013-07-31 02:03:00,51.6,45.3,29.82,SSE,158,0.0,0.0,79,0.00,,,0.00,WUHU216HW,2013-07-31 10:03:00,
2013-07-31 02:08:00,51.4,45.5,29.83,South,180,0.0,0.6,80,0.00,,,0.00,WUHU216HW,2013-07-31 10:08:00,
2013-07-31 02:13:00,51.4,45.8,29.82,SE,135,0.0,0.6,81,0.00,,,0.00,WUHU216HW,2013-07-31 10:13:00,
2013-07-31 02:18:00,51.2,45.6,29.83,SE,135,0.0,0.0,81,0.00,,,0.00,WUHU216HW,2013-07-31 10:18:00,
2013-07-31 02:23:00,51.0,45.1,29.83,SE,135,0.0,0.0,80,0.00,,,0.00,WUHU216HW,2013-07-31 10:23:00,
2013-07-31 02:28:00,51.0,45.1,29.83,SE,135,0.0,0.0,80,0.00,,,0.00,WUHU216HW,2013-07-31 10:28:00,
2013-07-31 02:33:00,50.9,45.2,29.83,SE,135,0.0,0.0,81,0.00,,,0.00,WUHU216HW,2013-07-31 10:33:00,
2013-07-31 02:38:00,50.9,45.2,29.83,SE,135,0.0,0.0,81,0.00,,,0.00,WUHU216HW,2013-07-31 10:38:00,
2013-07-31 02:43:00,50.7,44.7,29.83,SE,135,0.0,0.0,80,0.00,,,0.00,WUHU216HW,2013-07-31 10:43:00,
2013-07-31 02:48:00,50.5,44.6,29.83,SE,135,0.0,0.0,80,0.00,,,0.00,WUHU216HW,2013-07-31 10:48:00,
2013-07-31 02:53:00,50.3,44.4,29.83,SE,135,0.0,0.0,80,0.00,,,0.00,WUHU216HW,2013-07-31 10:53:00,
2013-07-31 02:58:00,50.1,44.2,29.83,SE,135,0.0,0.0,80,0.00,,,0.00,WUHU216HW,2013-07-31 10:58:00,
2013-07-31 03:03:00,49.8,43.8,29.83,SE,135,0.0,0.0,80,0.00,,,0.00,WUHU216HW,2013-07-31 11:03:00,
2013-07-31 03:08:00,49.8,44.1,29.83,SE,135,0.0,0.0,81,0.00,,,0.00,WUHU216HW,2013-07-31 11:08:00,
2013-07-31 03:13:00,49.6,44.0,29.83,SE,135,0.0,0.0,81,0.00,,,0.00,WUHU216HW,2013-07-31 11:13:00,
2013-07-31 03:18:00,49.6,44.0,29.83,SE,135,0.0,0.0,81,0.00,,,0.00,WUHU216HW,2013-07-31 11:18:00,
2013-07-31 03:23:00,49.6,44.0,29.83,SE,135,0.0,0.0,81,0.00,,,0.00,WUHU216HW,2013-07-31 11:23:00,
2013-07-31 03:28:00,49.2,43.6,29.83,SE,135,0.0,0.0,81,0.00,,,0.00,WUHU216HW,2013-07-31 11:28:00,
2013-07-31 03:33:00,49.2,43.6,29.83,SE,135,0.0,0.0,81,0.00,,,0.00,WUHU216HW,2013-07-31 11:33:00,
2013-07-31 03:38:00,49.1,43.4,29.83,SE,135,0.0,0.0,81,0.00,,,0.00,WUHU216HW,2013-07-31 11:38:00,
2013-07-31 03:43:00,49.1,43.4,29.83,SE,135,0.0,0.0,81,0.00,,,0.00,WUHU216HW,2013-07-31 11:43:00,
2013-07-31 03:48:00,48.9,43.2,29.83,SE,135,0.0,0.0,81,0.00,,,0.00,WUHU216HW,2013-07-31 11:48:00,
2013-07-31 03:53:00,48.7,43.1,29.83,SE,135,0.0,0.0,81,0.00,,,0.00,WUHU216HW,2013-07-31 11:53:00,
2013-07-31 03:58:00,48.7,43.1,29.83,SE,135,0.0,0.0,81,0.00,,,0.00,WUHU216HW,2013-07-31 11:58:00,
2013-07-31 04:03:00,48.5,42.9,29.83,SE,135,0.0,0.0,81,0.00,,,0.00,WUHU216HW,2013-07-31 12:03:00,
2013-07-31 04:08:00,48.3,42.7,29.83,SE,135,0.0,0.0,81,0.00,,,0.00,WUHU216HW,2013-07-31 12:08:00,
2013-07-31 04:13:00,48.2,42.5,29.83,SE,135,0.0,0.0,81,0.00,,,0.00,WUHU216HW,2013-07-31 12:13:00,
2013-07-31 04:18:00,48.2,42.5,29.83,SE,135,0.0,0.0,81,0.00,,,0.00,WUHU216HW,2013-07-31 12:18:00,
2013-07-31 04:23:00,48.2,42.5,29.83,SE,135,0.0,0.0,81,0.00,,,0.00,WUHU216HW,2013-07-31 12:23:00,
2013-07-31 04:28:00,48.2,42.5,29.83,SE,135,0.0,0.0,81,0.00,,,0.00,WUHU216HW,2013-07-31 12:28:00,
2013-07-31 04:33:00,48.3,42.7,29.83,SE,135,0.0,0.0,81,0.00,,,0.00,WUHU216HW,2013-07-31 12:33:00,
2013-07-31 04:38:00,48.5,43.2,29.83,SE,135,0.0,0.0,82,0.00,,,0.00,WUHU216HW,2013-07-31 12:38:00,
2013-07-31 04:43:00,48.7,43.4,29.83,SE,135,0.0,0.0,82,0.00,,,0.00,WUHU216HW,2013-07-31 12:43:00,
2013-07-31 04:48:00,49.1,43.7,29.83,SE,135,0.0,0.0,82,0.00,,,0.00,WUHU216HW,2013-07-31 12:48:00,
2013-07-31 04:53:00,49.2,43.9,29.83,SE,135,0.0,0.0,82,0.00,,,0.00,WUHU216HW,2013-07-31 12:53:00,
2013-07-31 04:58:00,49.6,44.3,29.83,SE,135,0.0,0.0,82,0.00,,,0.00,WUHU216HW,2013-07-31 12:58:00,
2013-07-31 05:03:00,49.8,44.4,29.83,SE,135,0.0,0.0,82,0.00,,,0.00,WUHU216HW,2013-07-31 13:03:00,
2013-07-31 05:08:00,50.1,44.8,29.83,SE,135,0.0,0.0,82,0.00,,,0.00,WUHU216HW,2013-07-31 13:08:00,
2013-07-31 05:13:00,50.3,45.0,29.83,SE,135,0.0,0.0,82,0.00,,,0.00,WUHU216HW,2013-07-31 13:13:00,
2013-07-31 05:18:00,50.3,45.0,29.83,SE,135,0.0,0.0,82,0.00,,,0.00,WUHU216HW,2013-07-31 13:18:00,
2013-07-31 05:23:00,50.5,45.2,29.82,SE,135,0.0,0.0,82,0.00,,,0.00,WUHU216HW,2013-07-31 13:23:00,
2013-07-31 05:28:00,50.7,45.3,29.82,SE,135,0.0,0.0,82,0.00,,,0.00,WUHU216HW,2013-07-31 13:28:00,
2013-07-31 05:33:00,51.0,45.7,29.82,SE,135,0.0,0.0,82,0.00,,,0.00,WUHU216HW,2013-07-31 13:33:00,
2013-07-31 05:38:00,51.4,46.4,29.82,SE,135,0.0,0.0,83,0.00,,,0.00,WUHU216HW,2013-07-31 13:38:00,
2013-07-31 05:43:00,51.4,46.4,29.82,SE,135,0.0,0.0,83,0.00,,,0.00,WUHU216HW,2013-07-31 13:43:00,
2013-07-31 05:48:00,51.6,46.5,29.82,SE,135,0.0,0.0,83,0.00,,,0.00,WUHU216HW,2013-07-31 13:48:00,
2013-07-31 05:53:00,51.6,46.5,29.82,SE,135,0.0,0.0,83,0.00,,,0.00,WUHU216HW,2013-07-31 13:53:00,
2013-07-31 05:58:00,51.8,46.7,29.82,SE,135,0.0,0.0,83,0.00,,,0.00,WUHU216HW,2013-07-31 13:58:00,
2013-07-31 06:03:00,51.8,46.7,29.81,SSW,203,0.0,0.0,83,0.00,,,0.00,WUHU216HW,2013-07-31 14:03:00,
2013-07-31 06:08:00,51.8,46.7,29.82,SSW,203,0.0,0.0,83,0.00,,,0.00,WUHU216HW,2013-07-31 14:08:00,
2013-07-31 06:13:00,51.9,46.9,29.82,SSW,203,0.0,0.0,83,0.00,,,0.00,WUHU216HW,2013-07-31 14:13:00,
2013-07-31 06:18:00,51.9,46.9,29.82,SSW,203,0.0,0.0,83,0.00,,,0.00,WUHU216HW,2013-07-31 14:18:00,
2013-07-31 06:23:00,52.3,47.3,29.82,SSW,203,0.0,0.0,83,0.00,,,0.00,WUHU216HW,2013-07-31 14:23:00,
2013-07-31 06:28:00,52.3,47.3,29.82,SSW,203,0.0,0.0,83,0.00,,,0.00,WUHU216HW,2013-07-31 14:28:00,
2013-07-31 06:33:00,52.5,47.4,29.82,SSW,203,0.0,0.0,83,0.00,,,0.00,WUHU216HW,2013-07-31 14:33:00,
2013-07-31 06:38:00,52.7,47.6,29.82,SSW,203,0.0,0.0,83,0.00,,,0.00,WUHU216HW,2013-07-31 14:38:00,
2013-07-31 06:43:00,53.0,48.0,29.82,SSW,203,0.0,0.0,83,0.00,,,0.00,WUHU216HW,2013-07-31 14:43:00,
2013-07-31 06:48:00,53.2,48.2,29.82,SSW,203,0.0,0.0,83,0.00,,,0.00,WUHU216HW,2013-07-31 14:48:00,
2013-07-31 06:53:00,53.4,48.3,29.82,SSW,203,0.0,0.0,83,0.00,,,0.00,WUHU216HW,2013-07-31 14:53:00,
2013-07-31 06:58:00,53.7,48.7,29.82,SSW,203,0.0,0.0,83,0.00,,,0.00,WUHU216HW,2013-07-31 14:58:00,
2013-07-31 07:03:00,53.7,48.4,29.82,SSW,203,0.0,0.0,82,0.00,,,0.00,WUHU216HW,2013-07-31 15:03:00,
2013-07-31 07:08:00,53.9,48.5,29.82,SSW,203,0.0,0.0,82,0.00,,,0.00,WUHU216HW,2013-07-31 15:08:00,
2013-07-31 07:13:00,54.1,48.7,29.82,SSW,203,0.0,0.0,82,0.00,,,0.00,WUHU216HW,2013-07-31 15:13:00,
2013-07-31 07:18:00,54.3,49.2,29.82,SSW,203,0.0,0.0,83,0.00,,,0.00,WUHU216HW,2013-07-31 15:18:00,
2013-07-31 07:23:00,54.5,49.4,29.82,SSW,203,0.0,0.0,83,0.00,,,0.00,WUHU216HW,2013-07-31 15:23:00,
2013-07-31 07:28:00,54.8,49.7,29.82,SSW,203,0.0,0.0,83,0.00,,,0.00,WUHU216HW,2013-07-31 15:28:00,
2013-07-31 07:33:00,55.0,49.9,29.82,SSW,203,0.0,0.0,83,0.00,,,0.00,WUHU216HW,2013-07-31 15:33:00,
2013-07-31 07:38:00,55.2,49.7,29.82,South,180,0.0,0.0,82,0.00,,,0.00,WUHU216HW,2013-07-31 15:38:00,
2013-07-31 07:43:00,55.2,49.7,29.82,South,180,0.0,0.0,82,0.00,,,0.00,WUHU216HW,2013-07-31 15:43:00,
2013-07-31 07:48:00,55.4,49.9,29.82,South,180,0.0,0.0,82,0.00,,,0.00,WUHU216HW,2013-07-31 15:48:00,
2013-07-31 07:53:00,55.5,50.1,29.82,South,180,0.0,0.0,82,0.00,,,0.00,WUHU216HW,2013-07-31 15:53:00,
2013-07-31 07:58:00,55.9,50.4,29.82,South,180,0.0,0.0,82,0.00,,,0.00,WUHU216HW,2013-07-31 15:58:00,
2013-07-31 08:03:00,56.3,50.8,29.82,South,180,0.0,0.0,82,0.00,,,0.00,WUHU216HW,2013-07-31 16:03:00,
2013-07-31 08:08:00,56.4,51.3,29.82,South,180,0.0,0.0,82,0.00,,,0.00,WUHU216HW,2013-07-31 16:08:00,
2013-07-31 08:13:00,57.0,51.5,29.82,South,180,0.0,0.0,82,0.00,,,0.00,WUHU216HW,2013-07-31 16:13:00,
2013-07-31 08:18:00,57.0,51.5,29.82,South,180,0.0,0.0,82,0.00,,,0.00,WUHU216HW,2013-07-31 16:18:00,
2013-07-31 08:23:00,57.3,51.9,29.82,South,180,0.0,0.0,83,0.00,,,0.00,WUHU216HW,2013-07-31 16:23:00,
2013-07-31 08:28:00,57.7,52.5,29.82,South,180,0.0,0.0,83,0.00,,,0.00,WUHU216HW,2013-07-31 16:28:00,
2013-07-31 08:33:00,57.9,52.7,29.82,South,180,0.0,0.0,83,0.00,,,0.00,WUHU216HW,2013-07-31 16:33:00,
2013-07-31 08:38:00,58.1,52.6,29.82,North,0,0.0,0.0,82,0.00,,,0.00,WUHU216HW,2013-07-31 16:38:00,
2013-07-31 08:43:00,58.6,53.1,29.82,West,270,0.0,0.0,82,0.00,,,0.00,WUHU216HW,2013-07-31 16:43:00,
2013-07-31 08:48:00,58.8,53.3,29.82,West,270,0.0,0.0,82,0.00,,,0.00,WUHU216HW,2013-07-31 16:48:00,
2013-07-31 08:53:00,58.8,53.3,29.82,WNW,293,0.0,0.0,82,0.00,,,0.00,WUHU216HW,2013-07-31 16:53:00,
2013-07-31 08:58:00,59.0,53.5,29.82,WNW,293,0.0,0.0,82,0.00,,,0.00,WUHU216HW,2013-07-31 16:58:00,
2013-07-31 09:03:00,59.5,53.7,29.83,WNW,293,0.0,0.0,81,0.00,,,0.00,WUHU216HW,2013-07-31 17:03:00,
2013-07-31 09:08:00,59.7,53.9,29.82,WNW,293,0.0,0.0,81,0.00,,,0.00,WUHU216HW,2013-07-31 17:08:00,
2013-07-31 09:13:00,60.0,54.2,29.82,WNW,293,0.0,0.0,81,0.00,,,0.00,WUHU216HW,2013-07-31 17:13:00,
2013-07-31 09:18:00,60.2,54.1,29.82,WNW,293,0.0,0.0,80,0.00,,,0.00,WUHU216HW,2013-07-31 17:18:00,
2013-07-31 09:23:00,60.4,54.3,29.82,WNW,293,0.0,0.0,80,0.00,,,0.00,WUHU216HW,2013-07-31 17:23:00,
2013-07-31 09:28:00,60.6,54.5,29.82,WNW,293,0.0,0.0,80,0.00,,,0.00,WUHU216HW,2013-07-31 17:28:00,
2013-07-31 09:33:00,60.9,54.8,29.82,WNW,293,0.0,0.0,80,0.00,,,0.00,WUHU216HW,2013-07-31 17:33:00,
2013-07-31 09:38:00,61.1,55.1,29.82,WNW,293,0.0,0.0,80,0.00,,,0.00,WUHU216HW,2013-07-31 17:38:00,
2013-07-31 09:43:00,61.7,55.4,29.82,WNW,293,0.0,0.0,80,0.00,,,0.00,WUHU216HW,2013-07-31 17:43:00,
2013-07-31 09:48:00,61.8,55.2,29.82,WNW,293,0.0,0.0,79,0.00,,,0.00,WUHU216HW,2013-07-31 17:48:00,
2013-07-31 09:53:00,62.4,55.9,29.82,WNW,293,0.0,0.0,79,0.00,,,0.00,WUHU216HW,2013-07-31 17:53:00,
2013-07-31 09:58:00,63.1,56.4,29.82,WNW,293,0.0,0.0,79,0.00,,,0.00,WUHU216HW,2013-07-31 17:58:00,
2013-07-31 10:03:00,63.6,56.6,29.82,WNW,293,0.0,0.0,78,0.00,,,0.00,WUHU216HW,2013-07-31 18:03:00,
2013-07-31 10:08:00,64.5,57.2,29.82,WNW,293,0.0,0.0,77,0.00,,,0.00,WUHU216HW,2013-07-31 18:08:00,
2013-07-31 10:13:00,65.8,58.4,29.82,NNW,338,1.1,1.1,77,0.00,,,0.00,WUHU216HW,2013-07-31 18:13:00,
2013-07-31 10:18:00,66.5,57.9,29.82,NNW,338,0.0,1.1,74,0.00,,,0.00,WUHU216HW,2013-07-31 18:18:00,
2013-07-31 10:23:00,66.9,58.1,29.82,NNW,338,0.0,1.1,73,0.00,,,0.00,WUHU216HW,2013-07-31 18:23:00,
2013-07-31 10:28:00,68.1,59.2,29.82,North,0,1.5,1.5,73,0.00,,,0.00,WUHU216HW,2013-07-31 18:28:00,
2013-07-31 10:33:00,70.3,60.0,29.82,NNE,23,0.8,1.5,70,0.00,,,0.00,WUHU216HW,2013-07-31 18:33:00,
2013-07-31 10:38:00,70.3,58.8,29.82,NNE,23,1.7,3.3,67,0.00,,,0.00,WUHU216HW,2013-07-31 18:38:00,
2013-07-31 10:43:00,69.9,58.8,29.82,North,0,0.6,3.3,68,0.00,,,0.00,WUHU216HW,2013-07-31 18:43:00,
2013-07-31 10:48:00,69.8,58.7,29.82,NNE,23,2.6,2.6,68,0.00,,,0.00,WUHU216HW,2013-07-31 18:48:00,
2013-07-31 10:53:00,69.6,58.1,29.82,North,0,1.5,2.6,67,0.00,,,0.00,WUHU216HW,2013-07-31 18:53:00,
2013-07-31 10:58:00,69.6,58.5,29.82,North,0,1.3,2.2,68,0.00,,,0.00,WUHU216HW,2013-07-31 18:58:00,
2013-07-31 11:03:00,70.1,58.6,29.82,NE,45,0.0,4.6,67,0.00,,,0.00,WUHU216HW,2013-07-31 19:03:00,
2013-07-31 11:08:00,70.3,58.8,29.82,NNE,23,0.0,4.9,67,0.00,,,0.00,WUHU216HW,2013-07-31 19:08:00,
2013-07-31 11:13:00,71.4,59.0,29.82,North,0,4.6,4.9,65,0.00,,,0.00,WUHU216HW,2013-07-31 19:13:00,
2013-07-31 11:18:00,72.1,59.2,29.82,North,0,3.5,4.6,64,0.00,,,0.00,WUHU216HW,2013-07-31 19:18:00,
2013-07-31 11:23:00,72.1,58.8,29.82,NNE,23,0.0,4.6,63,0.00,,,0.00,WUHU216HW,2013-07-31 19:23:00,
2013-07-31 11:28:00,72.1,58.8,29.82,North,0,0.0,2.6,63,0.00,,,0.00,WUHU216HW,2013-07-31 19:28:00,
2013-07-31 11:33:00,71.6,58.3,29.82,North,0,0.0,2.0,63,0.00,,,0.00,WUHU216HW,2013-07-31 19:33:00,
2013-07-31 11:38:00,71.6,58.3,29.82,NE,45,4.4,4.4,63,0.00,,,0.00,WUHU216HW,2013-07-31 19:38:00,
2013-07-31 11:43:00,71.4,57.7,29.82,NE,45,0.0,4.4,62,0.00,,,0.00,WUHU216HW,2013-07-31 19:43:00,
2013-07-31 11:48:00,70.8,57.6,29.82,North,0,2.6,4.6,63,0.00,,,0.00,WUHU216HW,2013-07-31 19:48:00,
2013-07-31 11:53:00,71.2,57.7,29.82,NE,45,3.8,4.6,62,0.00,,,0.00,WUHU216HW,2013-07-31 19:53:00,
2013-07-31 11:58:00,72.5,59.1,29.82,North,0,3.5,4.6,63,0.00,,,0.00,WUHU216HW,2013-07-31 19:58:00,
2013-07-31 12:03:00,75.3,60.6,29.81,North,0,3.1,4.6,60,0.00,,,0.00,WUHU216HW,2013-07-31 20:03:00,
2013-07-31 12:08:00,79.3,62.7,29.81,NNE,23,3.1,4.9,57,0.00,,,0.00,WUHU216HW,2013-07-31 20:08:00,
2013-07-31 12:13:00,84.0,64.0,29.81,North,0,5.1,5.1,51,0.00,,,0.00,WUHU216HW,2013-07-31 20:13:00,
2013-07-31 12:18:00,85.8,63.8,29.81,North,0,3.5,5.1,48,0.00,,,0.00,WUHU216HW,2013-07-31 20:18:00,
2013-07-31 12:23:00,87.4,63.4,29.81,NNE,23,2.0,5.1,45,0.00,,,0.00,WUHU216HW,2013-07-31 20:23:00,
2013-07-31 12:28:00,88.5,64.3,29.81,North,0,1.5,4.2,45,0.00,,,0.00,WUHU216HW,2013-07-31 20:28:00,
2013-07-31 12:33:00,89.4,64.4,29.81,North,0,0.0,2.0,44,0.00,,,0.00,WUHU216HW,2013-07-31 20:33:00,
2013-07-31 12:38:00,90.1,64.4,29.81,North,0,0.0,3.8,42,0.00,,,0.00,WUHU216HW,2013-07-31 20:38:00,
2013-07-31 12:40:00,90.1,63.8,29.81,North,0,0.0,3.8,42,0.00,,,0.00,WUHU216HW,2013-07-31 20:40:00,
2013-07-31 12:45:00,87.6,62.3,29.81,North,0,2.2,3.8,43,0.00,,,0.00,WUHU216HW,2013-07-31 20:45:00,
2013-07-31 12:50:00,86.1,61.6,29.81,NNE,23,0.0,2.2,44,0.00,,,0.00,WUHU216HW,2013-07-31 20:50:00,
2013-07-31 12:55:00,84.3,60.9,29.81,NE,45,1.1,2.6,46,0.00,,,0.00,WUHU216HW,2013-07-31 20:55:00,
2013-07-31 13:00:00,84.0,61.6,29.81,SE,135,0.0,2.6,47,0.00,,,0.00,WUHU216HW,2013-07-31 21:00:00,
2013-07-31 13:05:00,85.2,62.1,29.80,NE,45,4.2,4.2,46,0.00,,,0.00,WUHU216HW,2013-07-31 21:05:00,
2013-07-31 13:10:00,84.9,61.1,29.80,NNW,338,4.4,4.4,45,0.00,,,0.00,WUHU216HW,2013-07-31 21:10:00,
2013-07-31 13:15:00,85.2,62.1,29.80,North,0,0.6,4.4,46,0.00,,,0.00,WUHU216HW,2013-07-31 21:15:00,
2013-07-31 13:20:00,85.6,62.4,29.80,West,270,0.0,4.4,46,0.00,,,0.00,WUHU216HW,2013-07-31 21:20:00,
2013-07-31 13:25:00,85.4,61.6,29.80,West,270,0.0,2.4,45,0.00,,,0.00,WUHU216HW,2013-07-31 21:25:00,
2013-07-31 13:30:00,86.1,62.3,29.80,WNW,293,2.6,2.6,45,0.00,,,0.00,WUHU216HW,2013-07-31 21:30:00,
2013-07-31 13:35:00,86.5,62.0,29.80,WNW,293,2.4,2.6,44,0.00,,,0.00,WUHU216HW,2013-07-31 21:35:00,
2013-07-31 13:40:00,84.3,60.6,29.79,NW,315,3.3,3.8,45,0.00,,,0.00,WUHU216HW,2013-07-31 21:40:00,
2013-07-31 13:45:00,82.2,59.8,29.80,West,270,1.5,3.8,47,0.00,,,0.00,WUHU216HW,2013-07-31 21:45:00,
2013-07-31 13:50:00,80.4,58.8,29.80,NW,315,1.1,3.3,48,0.00,,,0.00,WUHU216HW,2013-07-31 21:50:00,
2013-07-31 13:55:00,78.9,59.2,29.80,NW,315,0.0,1.5,50,0.00,,,0.00,WUHU216HW,2013-07-31 21:55:00,
2013-07-31 14:00:00,78.6,59.5,29.80,WNW,293,0.0,0.8,52,0.00,,,0.00,WUHU216HW,2013-07-31 22:00:00,
2013-07-31 14:05:00,79.3,60.6,29.79,NW,315,0.0,1.1,53,0.00,,,0.00,WUHU216HW,2013-07-31 22:05:00,
2013-07-31 14:10:00,82.4,61.8,29.79,West,270,0.8,1.1,50,0.00,,,0.00,WUHU216HW,2013-07-31 22:10:00,
2013-07-31 14:15:00,85.6,64.3,29.79,NW,315,4.4,4.4,49,0.00,,,0.00,WUHU216HW,2013-07-31 22:15:00,
2013-07-31 14:20:00,88.5,64.3,29.79,North,0,1.5,4.4,45,0.00,,,0.00,WUHU216HW,2013-07-31 22:20:00,
2013-07-31 14:25:00,87.9,63.7,29.79,WNW,293,0.0,4.4,44,0.00,,,0.00,WUHU216HW,2013-07-31 22:25:00,
2013-07-31 14:30:00,86.5,62.0,29.79,WNW,293,0.8,1.3,44,0.00,,,0.00,WUHU216HW,2013-07-31 22:30:00,
2013-07-31 14:35:00,84.7,61.0,29.79,NNW,338,0.0,1.3,45,0.00,,,0.00,WUHU216HW,2013-07-31 22:35:00,
2013-07-31 14:40:00,82.0,59.7,29.79,NNE,23,0.0,4.6,47,0.00,,,0.00,WUHU216HW,2013-07-31 22:40:00,
2013-07-31 14:45:00,80.7,59.1,29.79,NW,315,0.4,4.6,48,0.00,,,0.00,WUHU216HW,2013-07-31 22:45:00,
2013-07-31 14:50:00,80.4,60.0,29.79,North,0,1.1,5.1,50,0.00,,,0.00,WUHU216HW,2013-07-31 22:50:00,
2013-07-31 14:55:00,81.5,60.4,29.79,North,0,4.2,8.0,49,0.00,,,0.00,WUHU216HW,2013-07-31 22:55:00,
2013-07-31 15:00:00,80.7,59.8,29.79,North,0,2.9,8.0,49,0.00,,,0.00,WUHU216HW,2013-07-31 23:00:00,
2013-07-31 15:05:00,79.7,58.8,29.79,NNE,23,0.6,4.2,49,0.00,,,0.00,WUHU216HW,2013-07-31 23:05:00,
2013-07-31 15:10:00,79.5,60.3,29.78,North,0,6.2,6.2,52,0.00,,,0.00,WUHU216HW,2013-07-31 23:10:00,
2013-07-31 15:15:00,82.5,61.4,29.78,North,0,2.2,6.2,49,0.00,,,0.00,WUHU216HW,2013-07-31 23:15:00,
2013-07-31 15:20:00,85.2,64.0,29.78,NW,315,5.8,6.2,49,0.00,,,0.00,WUHU216HW,2013-07-31 23:20:00,
2013-07-31 15:25:00,86.7,62.1,29.78,NW,315,6.2,6.2,44,0.00,,,0.00,WUHU216HW,2013-07-31 23:25:00,
2013-07-31 15:30:00,85.4,61.0,29.78,West,270,0.2,6.4,44,0.00,,,0.00,WUHU216HW,2013-07-31 23:30:00,
2013-07-31 15:35:00,86.3,62.4,29.78,WNW,293,8.7,8.7,45,0.00,,,0.00,WUHU216HW,2013-07-31 23:35:00,
2013-07-31 15:40:00,87.6,62.3,29.78,SW,225,0.4,8.7,43,0.00,,,0.00,WUHU216HW,2013-07-31 23:40:00,
2013-07-31 15:45:00,88.3,62.3,29.78,West,270,1.1,6.7,42,0.00,,,0.00,WUHU216HW,2013-07-31 23:45:00,
2013-07-31 15:50:00,88.3,62.3,29.78,West,270,4.0,6.7,42,0.00,,,0.00,WUHU216HW,2013-07-31 23:50:00,
2013-07-31 15:55:00,87.6,61.0,29.78,WNW,293,0.0,6.0,41,0.00,,,0.00,WUHU216HW,2013-07-31 23:55:00,
2013-07-31 16:00:00,87.0,61.2,29.78,West,270,5.3,5.3,42,0.00,,,0.00,WUHU216HW,2013-08-01 00:00:00,
2013-07-31 16:05:00,86.1,60.4,29.78,NW,315,7.8,7.8,42,0.00,,,0.00,WUHU216HW,2013-08-01 00:05:00,
2013-07-31 16:10:00,85.2,59.6,29.78,WNW,293,8.2,8.2,42,0.00,,,0.00,WUHU216HW,2013-08-01 00:10:00,
2013-07-31 16:15:00,84.7,59.1,29.78,WNW,293,6.0,8.2,42,0.00,,,0.00,WUHU216HW,2013-08-01 00:15:00,
2013-07-31 16:20:00,82.0,57.8,29.78,West,270,6.7,8.2,44,0.00,,,0.00,WUHU216HW,2013-08-01 00:20:00,
2013-07-31 16:25:00,78.9,56.3,29.78,NW,315,0.0,6.7,46,0.00,,,0.00,WUHU216HW,2013-08-01 00:25:00,
2013-07-31 16:30:00,77.5,55.6,29.78,West,270,8.2,8.2,47,0.00,,,0.00,WUHU216HW,2013-08-01 00:30:00,
2013-07-31 16:35:00,76.4,55.9,29.78,West,270,8.2,8.2,49,0.00,,,0.00,WUHU216HW,2013-08-01 00:35:00,
2013-07-31 16:40:00,75.0,55.2,29.78,West,270,3.1,8.2,50,0.00,,,0.00,WUHU216HW,2013-08-01 00:40:00,
2013-07-31 16:45:00,74.3,55.0,29.78,West,270,2.2,3.8,51,0.00,,,0.00,WUHU216HW,2013-08-01 00:45:00,
2013-07-31 16:50:00,73.9,55.1,29.77,WSW,248,2.0,3.8,52,0.00,,,0.00,WUHU216HW,2013-08-01 00:50:00,
2013-07-31 16:55:00,73.0,54.7,29.78,WNW,293,10.9,10.9,53,0.00,,,0.00,WUHU216HW,2013-08-01 00:55:00,
2013-07-31 17:00:00,72.3,54.6,29.78,West,270,1.7,10.9,54,0.00,,,0.00,WUHU216HW,2013-08-01 01:00:00,
2013-07-31 17:05:00,71.9,54.3,29.78,WSW,248,0.8,10.9,54,0.00,,,0.00,WUHU216HW,2013-08-01 01:05:00,
2013-07-31 17:10:00,71.2,54.1,29.78,WSW,248,8.9,8.9,55,0.00,,,0.00,WUHU216HW,2013-08-01 01:10:00,
2013-07-31 17:15:00,70.8,54.3,29.77,WNW,293,4.0,8.9,56,0.00,,,0.00,WUHU216HW,2013-08-01 01:15:00,
2013-07-31 17:20:00,70.3,53.8,29.77,WNW,293,9.1,9.1,56,0.00,,,0.00,WUHU216HW,2013-08-01 01:20:00,
2013-07-31 17:25:00,69.9,54.0,29.77,West,270,3.3,9.1,57,0.00,,,0.00,WUHU216HW,2013-08-01 01:25:00,
2013-07-31 17:30:00,69.8,53.8,29.77,WNW,293,2.6,5.5,57,0.00,,,0.00,WUHU216HW,2013-08-01 01:30:00,
2013-07-31 17:35:00,69.6,53.7,29.78,West,270,0.6,7.3,57,0.00,,,0.00,WUHU216HW,2013-08-01 01:35:00,
2013-07-31 17:40:00,69.4,53.5,29.77,WNW,293,5.8,7.3,57,0.00,,,0.00,WUHU216HW,2013-08-01 01:40:00,
2013-07-31 17:45:00,69.0,53.6,29.77,SSW,203,3.3,5.8,58,0.00,,,0.00,WUHU216HW,2013-08-01 01:45:00,
2013-07-31 17:50:00,68.9,53.5,29.77,West,270,3.8,7.8,58,0.00,,,0.00,WUHU216HW,2013-08-01 01:50:00,
2013-07-31 17:55:00,68.7,53.3,29.77,SW,225,3.3,7.8,58,0.00,,,0.00,WUHU216HW,2013-08-01 01:55:00,
2013-07-31 18:00:00,68.5,53.8,29.77,West,270,2.9,4.2,59,0.00,,,0.00,WUHU216HW,2013-08-01 02:00:00,
2013-07-31 18:05:00,68.5,53.6,29.77,NW,315,0.6,2.9,59,0.00,,,0.00,WUHU216HW,2013-08-01 02:05:00,
2013-07-31 18:10:00,68.7,53.8,29.77,WSW,248,3.1,3.1,59,0.00,,,0.00,WUHU216HW,2013-08-01 02:10:00,
2013-07-31 18:15:00,68.5,53.6,29.77,WNW,293,2.4,5.3,59,0.00,,,0.00,WUHU216HW,2013-08-01 02:15:00,
2013-07-31 18:20:00,67.8,52.9,29.77,SW,225,2.9,5.3,59,0.00,,,0.00,WUHU216HW,2013-08-01 02:20:00,
2013-07-31 18:25:00,67.8,53.4,29.77,WNW,293,4.6,4.6,60,0.00,,,0.00,WUHU216HW,2013-08-01 02:25:00,
2013-07-31 18:30:00,67.2,52.9,29.77,WSW,248,4.2,10.0,60,0.00,,,0.00,WUHU216HW,2013-08-01 02:30:00,
2013-07-31 18:35:00,67.1,53.2,29.77,West,270,2.2,10.0,61,0.00,,,0.00,WUHU216HW,2013-08-01 02:35:00,
2013-07-31 18:40:00,66.5,52.7,29.77,SSW,203,3.5,6.0,61,0.00,,,0.00,WUHU216HW,2013-08-01 02:40:00,
2013-07-31 18:45:00,66.3,52.5,29.76,West,270,6.2,6.9,61,0.00,,,0.00,WUHU216HW,2013-08-01 02:45:00,
2013-07-31 18:50:00,66.0,52.6,29.77,NW,315,6.9,6.9,62,0.00,,,0.00,WUHU216HW,2013-08-01 02:50:00,
2013-07-31 18:55:00,66.0,52.6,29.76,West,270,2.9,6.9,62,0.00,,,0.00,WUHU216HW,2013-08-01 02:55:00,
2013-07-31 19:00:00,66.0,53.0,29.76,NW,315,5.5,6.9,63,0.00,,,0.00,WUHU216HW,2013-08-01 03:00:00,
2013-07-31 19:05:00,65.8,52.8,29.76,WNW,293,8.9,8.9,63,0.00,,,0.00,WUHU216HW,2013-08-01 03:05:00,
2013-07-31 19:10:00,65.6,53.1,29.76,NW,315,3.3,8.9,64,0.00,,,0.00,WUHU216HW,2013-08-01 03:10:00,
2013-07-31 19:15:00,65.8,53.2,29.76,West,270,3.1,8.9,64,0.00,,,0.00,WUHU216HW,2013-08-01 03:15:00,
2013-07-31 19:20:00,65.8,53.2,29.76,WSW,248,1.5,5.3,64,0.00,,,0.00,WUHU216HW,2013-08-01 03:20:00,
2013-07-31 19:25:00,65.8,53.2,29.76,West,270,1.5,3.8,64,0.00,,,0.00,WUHU216HW,2013-08-01 03:25:00,
2013-07-31 19:30:00,65.8,53.2,29.76,West,270,2.6,2.9,64,0.00,,,0.00,WUHU216HW,2013-08-01 03:30:00,
2013-07-31 19:35:00,65.4,52.9,29.76,West,270,2.6,6.4,64,0.00,,,0.00,WUHU216HW,2013-08-01 03:35:00,
2013-07-31 19:40:00,65.3,52.7,29.76,West,270,0.8,6.4,64,0.00,,,0.00,WUHU216HW,2013-08-01 03:40:00,
2013-07-31 19:45:00,65.1,52.5,29.76,West,270,0.0,2.6,64,0.00,,,0.00,WUHU216HW,2013-08-01 03:45:00,
2013-07-31 19:50:00,64.9,52.8,29.76,West,270,2.0,2.0,65,0.00,,,0.00,WUHU216HW,2013-08-01 03:50:00,
2013-07-31 19:55:00,64.7,52.6,29.76,WNW,293,3.8,3.8,65,0.00,,,0.00,WUHU216HW,2013-08-01 03:55:00,
2013-07-31 20:01:00,64.4,52.3,29.76,West,270,7.6,7.6,65,0.00,,,0.00,WUHU216HW,2013-08-01 04:01:00,
2013-07-31 20:02:00,64.4,52.3,29.76,West,270,7.6,7.6,65,0.00,,,0.00,WUHU216HW,2013-08-01 04:02:00,
2013-07-31 20:07:00,64.0,51.9,29.76,West,270,0.0,7.6,65,0.00,,,0.00,WUHU216HW,2013-08-01 04:07:00,
2013-07-31 20:12:00,63.5,51.9,29.76,SSE,158,0.0,7.6,66,0.00,,,0.00,WUHU216HW,2013-08-01 04:12:00,
2013-07-31 20:17:00,63.3,52.1,29.75,SW,225,7.3,7.3,67,0.00,,,0.00,WUHU216HW,2013-08-01 04:17:00,
2013-07-31 20:22:00,63.1,52.3,29.75,WSW,248,0.0,7.3,68,0.00,,,0.00,WUHU216HW,2013-08-01 04:22:00,
2013-07-31 20:27:00,62.7,52.0,29.76,NW,315,0.0,7.3,68,0.00,,,0.00,WUHU216HW,2013-08-01 04:27:00,
2013-07-31 20:32:00,62.4,51.7,29.76,WSW,248,0.4,4.9,68,0.00,,,0.00,WUHU216HW,2013-08-01 04:32:00,
2013-07-31 20:37:00,62.4,52.1,29.75,SW,225,4.0,8.5,69,0.00,,,0.00,WUHU216HW,2013-08-01 04:37:00,
2013-07-31 20:42:00,62.2,51.9,29.75,SW,225,0.0,8.5,69,0.00,,,0.00,WUHU216HW,2013-08-01 04:42:00,
2013-07-31 20:47:00,62.2,52.3,29.75,West,270,0.0,0.8,70,0.00,,,0.00,WUHU216HW,2013-08-01 04:47:00,
2013-07-31 20:52:00,62.0,52.2,29.76,SW,225,0.0,2.6,70,0.00,,,0.00,WUHU216HW,2013-08-01 04:52:00,
2013-07-31 20:57:00,62.0,52.5,29.75,WSW,248,1.1,2.6,71,0.00,,,0.00,WUHU216HW,2013-08-01 04:57:00,
2013-07-31 21:02:00,61.8,52.4,29.75,West,270,0.0,1.1,71,0.00,,,0.00,WUHU216HW,2013-08-01 05:02:00,
2013-07-31 21:07:00,61.8,52.4,29.75,WSW,248,0.6,1.1,71,0.00,,,0.00,WUHU216HW,2013-08-01 05:07:00,
2013-07-31 21:12:00,61.8,52.4,29.75,SW,225,0.0,0.6,71,0.00,,,0.00,WUHU216HW,2013-08-01 05:12:00,
2013-07-31 21:17:00,61.8,52.4,29.75,SW,225,1.5,1.5,71,0.00,,,0.00,WUHU216HW,2013-08-01 05:17:00,
2013-07-31 21:22:00,61.8,52.4,29.75,West,270,0.0,1.5,71,0.00,,,0.00,WUHU216HW,2013-08-01 05:22:00,
2013-07-31 21:27:00,61.8,52.7,29.75,West,270,0.0,1.5,72,0.00,,,0.00,WUHU216HW,2013-08-01 05:27:00,
2013-07-31 21:32:00,61.8,52.4,29.76,WSW,248,0.0,0.6,71,0.00,,,0.00,WUHU216HW,2013-08-01 05:32:00,
2013-07-31 21:37:00,62.0,52.9,29.75,SSE,158,0.0,0.0,72,0.00,,,0.00,WUHU216HW,2013-08-01 05:37:00,
2013-07-31 21:42:00,62.0,52.9,29.75,WSW,248,0.0,0.4,72,0.00,,,0.00,WUHU216HW,2013-08-01 05:42:00,
2013-07-31 21:47:00,62.2,53.0,29.75,West,270,0.0,0.4,72,0.00,,,0.00,WUHU216HW,2013-08-01 05:47:00,
2013-07-31 21:52:00,62.0,52.9,29.75,WSW,248,1.1,1.1,72,0.00,,,0.00,WUHU216HW,2013-08-01 05:52:00,
2013-07-31 21:57:00,61.8,52.7,29.75,South,180,0.0,1.1,72,0.00,,,0.00,WUHU216HW,2013-08-01 05:57:00,
2013-07-31 22:02:00,61.8,52.7,29.75,WSW,248,0.0,1.1,73,0.00,,,0.00,WUHU216HW,2013-08-01 06:02:00,
2013-07-31 22:08:00,61.7,52.9,29.75,West,270,0.6,0.8,73,0.00,,,0.00,WUHU216HW,2013-08-01 06:08:00,
2013-07-31 22:13:00,61.5,52.8,29.76,SSW,203,1.3,1.3,73,0.00,,,0.00,WUHU216HW,2013-08-01 06:13:00,
2013-07-31 22:18:00,61.5,52.8,29.76,West,270,2.0,2.0,73,0.00,,,0.00,WUHU216HW,2013-08-01 06:18:00,
2013-07-31 22:23:00,61.5,52.8,29.76,WSW,248,0.0,2.0,73,0.00,,,0.00,WUHU216HW,2013-08-01 06:23:00,
2013-07-31 22:28:00,61.5,53.1,29.76,SSW,203,0.0,0.0,74,0.00,,,0.00,WUHU216HW,2013-08-01 06:28:00,
2013-07-31 22:33:00,61.5,53.1,29.76,SSW,203,0.0,0.0,74,0.00,,,0.00,WUHU216HW,2013-08-01 06:33:00,
2013-07-31 22:38:00,61.3,53.0,29.76,WNW,293,0.0,0.0,74,0.00,,,0.00,WUHU216HW,2013-08-01 06:38:00,
2013-07-31 22:43:00,61.3,53.0,29.76,SW,225,0.0,0.0,74,0.00,,,0.00,WUHU216HW,2013-08-01 06:43:00,
2013-07-31 22:48:00,61.1,52.8,29.76,SW,225,0.0,1.7,74,0.00,,,0.00,WUHU216HW,2013-08-01 06:48:00,
2013-07-31 22:53:00,61.1,52.8,29.76,SSW,203,0.0,1.7,74,0.00,,,0.00,WUHU216HW,2013-08-01 06:53:00,
2013-07-31 22:58:00,60.9,52.6,29.76,West,270,0.0,0.0,74,0.00,,,0.00,WUHU216HW,2013-08-01 06:58:00,
2013-07-31 23:03:00,60.9,52.6,29.76,SSW,203,2.6,2.6,74,0.00,,,0.00,WUHU216HW,2013-08-01 07:03:00,
2013-07-31 23:08:00,60.8,52.5,29.76,SSW,203,0.0,2.6,74,0.00,,,0.00,WUHU216HW,2013-08-01 07:08:00,
2013-07-31 23:13:00,60.6,52.7,29.76,WSW,248,0.0,2.6,75,0.00,,,0.00,WUHU216HW,2013-08-01 07:13:00,
2013-07-31 23:18:00,60.6,52.7,29.76,SW,225,0.0,0.0,75,0.00,,,0.00,WUHU216HW,2013-08-01 07:18:00,
2013-07-31 23:23:00,60.6,52.7,29.76,WSW,248,0.0,2.4,75,0.00,,,0.00,WUHU216HW,2013-08-01 07:23:00,
2013-07-31 23:28:00,60.4,52.5,29.75,WSW,248,0.0,2.4,75,0.00,,,0.00,WUHU216HW,2013-08-01 07:28:00,
2013-07-31 23:33:00,60.4,52.1,29.76,WSW,248,2.4,2.4,75,0.00,,,0.00,WUHU216HW,2013-08-01 07:33:00,
2013-07-31 23:38:00,59.9,51.9,29.76,WSW,248,0.0,2.4,75,0.00,,,0.00,WUHU216HW,2013-08-01 07:38:00,
2013-07-31 23:43:00,59.5,51.6,29.76,SW,225,0.0,2.4,75,0.00,,,0.00,WUHU216HW,2013-08-01 07:43:00,
2013-07-31 23:48:00,59.1,51.6,29.75,South,180,0.0,0.0,75,0.00,,,0.00,WUHU216HW,2013-08-01 07:48:00,
2013-07-31 23:53:00,58.8,51.2,29.76,SSW,203,0.0,0.0,76,0.00,,,0.00,WUHU216HW,2013-08-01 07:53:00,
2013-07-31 23:58:00,58.8,51.2,29.76,SSW,203,0.0,0.0,76,0.00,,,0.00,WUHU216HW,2013-08-01 07:58:00,